Location: Miles
(41.4492°N, 81.6087°W)
Time: 11:17:16
(UTC+00:00)

Courier 1B - Pass Details

Date: 15 September 2024
Orbit: 962 x 1208 km, 28.3° (Epoch: 04 October)

Event Time Altitude Azimuth Distance (km) Brightness Sun altitude
Rises 18:26:39 0° 215° (SW) 3,817 11.3 48.5°
Reaches altitude 10° 18:30:22 10° 196° (SSW) 2,914 10.9 48.2°
Maximum altitude 18:34:45 17° 158° (SSE) 2,473 10.3 47.8°
Drops below altitude 10° 18:39:17 10° 120° (ESE) 3,031 10.2 47.4°
Sets 18:43:15 0° 102° (ESE) 4,036 10.6 47.0°
